Location: Central Falls
(41.8900°N, 71.3929°W)
Time: 21:59:29
(UTC+00:00)

Tiros 1 - All Passes

Search period start: 06 December 2023 00:00
Search period end: 16 December 2023 00:00
Orbit: 625 x 659 km, 48.4° (Epoch: 06 December)

Date Brightness Start Highest point End Pass type
(mag) Time Alt. Az. Time Alt. Az. Time Alt. Az.
06 Dec - 08:08:25 10° SW 08:13:00 49° SE 08:17:37 10° ENE visible
06 Dec - 09:50:27 10° W 09:55:08 53° NNW 09:59:51 10° ENE visible
06 Dec - 11:33:26 10° WNW 11:37:54 37° N 11:42:21 10° ENE daylight
06 Dec - 13:15:49 10° WNW 13:20:35 63° NNE 13:25:19 10° ESE daylight
06 Dec - 14:58:11 10° WNW 15:02:33 36° SW 15:06:52 10° SSE daylight
07 Dec - 06:52:14 10° S 06:55:49 21° SE 06:59:24 10° E night (unlit)
07 Dec - 08:32:41 10° WSW 08:37:28 90° N 08:42:17 10° ENE visible
07 Dec - 10:15:26 10° W 10:19:58 40° N 10:24:30 10° ENE visible
07 Dec - 11:58:12 10° WNW 12:02:47 43° NNE 12:07:20 10° E daylight
07 Dec - 13:40:24 10° WNW 13:45:12 79° SSW 13:49:57 10° SE daylight
07 Dec - 15:23:37 10° W 15:26:45 17° SW 15:29:50 10° S daylight
08 Dec - 07:15:33 10° SSW 07:20:03 43° SE 07:24:35 10° ENE night (unlit)
08 Dec - 08:57:25 10° W 09:02:07 57° NNW 09:06:51 10° ENE visible
08 Dec - 10:40:23 10° WNW 10:44:51 37° N 10:49:19 10° ENE visible
08 Dec - 12:22:50 10° WNW 12:27:35 59° NNE 12:32:17 10° E daylight
08 Dec - 14:05:08 10° WNW 14:09:37 41° SW 14:14:03 10° SSE daylight
09 Dec - 05:59:36 10° S 06:02:54 19° SE 06:06:12 10° E night (unlit)
09 Dec - 07:39:43 10° WSW 07:44:29 83° SSE 07:49:17 10° ENE visible
09 Dec - 09:22:22 10° W 09:26:55 42° N 09:31:29 10° ENE visible
09 Dec - 11:05:11 10° WNW 11:09:45 41° N 11:14:17 10° E visible
09 Dec - 12:47:24 10° WNW 12:52:13 86° SSW 12:56:59 10° ESE daylight
09 Dec - 14:30:22 10° W 14:33:50 20° SW 14:37:15 10° S daylight
10 Dec - 06:22:42 10° SSW 06:27:05 38° SE 06:31:32 10° ENE night (unlit)
10 Dec - 08:04:23 10° WSW 08:09:06 61° NNW 08:13:51 10° ENE visible
10 Dec - 09:47:20 10° WNW 09:51:47 37° N 09:56:16 10° ENE visible
10 Dec - 11:29:50 10° WNW 11:34:33 55° NNE 11:39:14 10° E visible
10 Dec - 13:12:04 10° WNW 13:16:39 46° SW 13:21:11 10° SE daylight
11 Dec - 05:07:03 10° S 05:09:58 16° SE 05:12:56 10° E night (unlit)
11 Dec - 06:46:45 10° SW 06:51:29 75° SSE 06:56:16 10° ENE night (unlit)
11 Dec - 08:29:18 10° W 08:33:52 43° NNW 08:38:27 10° ENE visible
11 Dec - 10:12:10 10° WNW 10:16:41 40° N 10:21:12 10° ENE visible
11 Dec - 11:54:23 10° WNW 11:59:12 86° NNE 12:03:59 10° ESE daylight
11 Dec - 13:37:11 10° W 13:40:54 23° SW 13:44:36 10° S daylight
12 Dec - 05:29:53 10° SSW 05:34:08 34° SE 05:38:26 10° ENE night (unlit)
12 Dec - 07:11:20 10° WSW 07:16:03 65° NNW 07:20:50 10° ENE night (unlit)
12 Dec - 08:54:17 10° WNW 08:58:44 37° N 09:03:12 10° ENE visible
12 Dec - 10:36:49 10° WNW 10:41:30 51° NNE 10:46:10 10° E visible
12 Dec - 12:19:01 10° WNW 12:23:41 52° SW 12:28:17 10° SE daylight
13 Dec - 04:14:35 10° SSE 04:17:04 14° SE 04:19:33 10° E night (unlit)
13 Dec - 05:53:47 10° SW 05:58:29 68° SSE 06:03:14 10° ENE night (unlit)
13 Dec - 07:36:14 10° W 07:40:48 45° NNW 07:45:25 10° ENE visible
13 Dec - 09:19:07 10° WNW 09:23:37 39° N 09:28:08 10° ENE visible
13 Dec - 11:01:22 10° WNW 11:06:11 80° NNE 11:10:58 10° ESE visible
13 Dec - 12:44:00 10° W 12:47:57 26° SW 12:51:51 10° SSE daylight
14 Dec - 04:37:04 10° SSW 04:41:10 30° SE 04:45:19 10° ENE night (unlit)
14 Dec - 06:18:18 10° WSW 06:23:02 71° NNW 06:27:49 10° ENE night (unlit)
14 Dec - 08:01:12 10° WNW 08:05:39 38° N 08:10:08 10° ENE visible
14 Dec - 09:43:47 10° WNW 09:48:27 49° NNE 09:53:06 10° E visible
14 Dec - 11:25:58 10° WNW 11:30:41 58° SW 11:35:22 10° SE visible
14 Dec - 13:10:22 10° WSW 13:12:01 12° SW 13:13:40 10° SSW daylight
15 Dec - 03:22:17 10° SSE 03:24:08 12° SE 03:26:00 10° ESE night (unlit)
15 Dec - 05:00:51 10° SW 05:05:29 60° SE 05:10:11 10° ENE night (unlit)
15 Dec - 06:43:08 10° W 06:47:44 47° NNW 06:52:22 10° ENE night (unlit)
15 Dec - 08:26:04 10° WNW 08:30:32 38° N 08:35:01 10° ENE visible
15 Dec - 10:08:20 10° WNW 10:13:08 73° NNE 10:17:56 10° ESE visible
15 Dec - 11:50:52 10° WNW 11:54:59 29° SW 11:59:05 10° SSE daylight
